Simultaneous Nadir Overpasses (SNOs) Predictions

Prediction of SNOs between AQUA and GOES-15 Satellite Orbit:

Table of predicted SNOs for the next 14.0 days since TLE Epoch: 8/30/2014
Index Date Time (AQUA) AQUA Lat,Lon GOES-15 Lat,Lon Distance(km) Time Diff (sec)
1 08/31/2014 22:22:56 0.23,-131.86 -0.39,-134.80 334.03 80
2 09/01/2014 10:44:12 0.86,-137.02 0.38,-134.73 260.42 80
3 09/03/2014 10:32:01 0.26,-134.06 0.38,-134.60 61.10 80
4 09/05/2014 10:19:50 -0.35,-131.11 0.37,-134.46 382.00 80
5 09/05/2014 22:41:13 -0.78,-136.29 -0.36,-134.46 208.81 80
6 09/07/2014 22:29:02 -0.15,-133.34 -0.36,-134.32 111.76 80
7 09/08/2014 10:50:18 1.22,-138.50 0.35,-134.26 482.07 80
8 09/09/2014 22:16:51 0.43,-130.38 -0.36,-134.18 432.25 80
9 09/10/2014 10:38:06 0.64,-135.54 0.35,-134.11 161.82 80
10 09/12/2014 10:25:54 0.04,-132.58 0.35,-133.96 158.15 80
11 09/12/2014 22:47:18 -1.15,-137.77 -0.33,-133.95 434.12 80




NCC Satellite Simultaneous Nadir Overpasses (SNOs) Prediction Service
